Time,TemperatureF,DewpointF,PressureIn,WindDirection,WindDirectionDegrees,WindSpeedMPH,WindSpeedGustMPH,Humidity,HourlyPrecipIn,Conditions,Clouds,dailyrainin,SoftwareType,DateUTC
2013-05-02 00:04:00,65.2,64.0,29.88,East,89,1.0,5.0,97,0.01,,,0.00,weatherlink.com 1.10,2013-05-02 05:04:00,
2013-05-02 00:19:00,65.3,64.0,29.87,ESE,121,0.0,7.0,96,0.01,,,0.00,weatherlink.com 1.10,2013-05-02 05:19:00,
2013-05-02 00:34:00,65.2,64.0,29.87,East,80,0.0,3.0,96,0.01,,,0.00,weatherlink.com 1.10,2013-05-02 05:34:00,
2013-05-02 00:49:00,65.2,64.0,29.88,East,80,0.0,2.0,97,0.00,,,0.00,weatherlink.com 1.10,2013-05-02 05:49:00,
2013-05-02 01:04:00,65.2,64.0,29.87,East,80,0.0,1.0,97,0.00,,,0.00,weatherlink.com 1.10,2013-05-02 06:04:00,
2013-05-02 01:19:00,65.1,64.0,29.86,East,80,0.0,2.0,97,0.00,,,0.00,weatherlink.com 1.10,2013-05-02 06:19:00,
2013-05-02 01:34:00,64.8,64.0,29.86,East,80,0.0,1.0,97,0.00,,,0.00,weatherlink.com 1.10,2013-05-02 06:34:00,
2013-05-02 01:49:00,64.5,64.0,29.86,East,80,0.0,1.0,97,0.00,,,0.00,weatherlink.com 1.10,2013-05-02 06:49:00,
2013-05-02 02:04:00,64.5,64.0,29.86,East,80,0.0,0.0,98,0.00,,,0.00,weatherlink.com 1.10,2013-05-02 07:04:00,
2013-05-02 02:19:00,64.6,64.0,29.86,East,80,0.0,3.0,98,0.00,,,0.00,weatherlink.com 1.10,2013-05-02 07:19:00,
2013-05-02 02:34:00,64.6,64.0,29.85,East,80,0.0,1.0,98,0.00,,,0.00,weatherlink.com 1.10,2013-05-02 07:34:00,
2013-05-02 02:49:00,64.6,64.0,29.86,East,80,0.0,1.0,98,0.00,,,0.00,weatherlink.com 1.10,2013-05-02 07:49:00,
2013-05-02 03:04:00,64.8,64.0,29.86,East,80,0.0,1.0,98,0.00,,,0.00,weatherlink.com 1.10,2013-05-02 08:04:00,
2013-05-02 03:19:00,64.8,65.0,29.86,East,80,1.0,2.0,99,0.00,,,0.00,weatherlink.com 1.10,2013-05-02 08:19:00,
2013-05-02 03:34:00,64.9,64.0,29.86,East,80,0.0,2.0,98,0.00,,,0.00,weatherlink.com 1.10,2013-05-02 08:34:00,
2013-05-02 03:49:00,65.0,65.0,29.85,East,80,0.0,1.0,98,0.00,,,0.00,weatherlink.com 1.10,2013-05-02 08:49:00,
2013-05-02 04:04:00,64.9,64.0,29.85,East,80,0.0,1.0,98,0.00,,,0.00,weatherlink.com 1.10,2013-05-02 09:04:00,
2013-05-02 04:19:00,64.8,64.0,29.86,East,80,0.0,1.0,98,0.00,,,0.00,weatherlink.com 1.10,2013-05-02 09:19:00,
2013-05-02 04:34:00,64.9,65.0,29.87,East,80,0.0,1.0,99,0.00,,,0.00,weatherlink.com 1.10,2013-05-02 09:34:00,
2013-05-02 04:49:00,65.0,65.0,29.88,East,80,1.0,2.0,98,0.00,,,0.00,weatherlink.com 1.10,2013-05-02 09:49:00,
2013-05-02 05:04:00,65.0,65.0,29.88,East,80,0.0,2.0,98,0.00,,,0.00,weatherlink.com 1.10,2013-05-02 10:04:00,
2013-05-02 05:20:00,64.9,64.0,29.88,East,80,0.0,0.0,98,0.00,,,0.00,weatherlink.com 1.10,2013-05-02 10:20:00,
2013-05-02 05:35:00,64.8,64.0,29.89,East,80,0.0,0.0,98,0.00,,,0.00,weatherlink.com 1.10,2013-05-02 10:35:00,
2013-05-02 05:50:00,64.8,65.0,29.89,East,80,0.0,0.0,99,0.00,,,0.00,weatherlink.com 1.10,2013-05-02 10:50:00,
2013-05-02 06:05:00,64.7,64.0,29.89,East,80,0.0,0.0,99,0.00,,,0.00,weatherlink.com 1.10,2013-05-02 11:05:00,
2013-05-02 06:20:00,64.7,64.0,29.89,East,80,0.0,0.0,99,0.00,,,0.00,weatherlink.com 1.10,2013-05-02 11:20:00,
2013-05-02 06:35:00,64.6,64.0,29.89,ENE,76,0.0,4.0,99,0.00,,,0.00,weatherlink.com 1.10,2013-05-02 11:35:00,
2013-05-02 06:50:00,64.7,64.0,29.90,ENE,76,0.0,2.0,99,0.00,,,0.00,weatherlink.com 1.10,2013-05-02 11:50:00,
2013-05-02 07:05:00,64.8,65.0,29.91,ENE,76,0.0,1.0,99,0.00,,,0.00,weatherlink.com 1.10,2013-05-02 12:05:00,
2013-05-02 07:20:00,64.8,65.0,29.91,ENE,76,2.0,3.0,99,0.00,,,0.00,weatherlink.com 1.10,2013-05-02 12:20:00,
2013-05-02 07:35:00,64.9,65.0,29.91,ENE,76,0.0,3.0,99,0.00,,,0.00,weatherlink.com 1.10,2013-05-02 12:35:00,
2013-05-02 07:50:00,65.2,65.0,29.92,ENE,76,0.0,2.0,99,0.00,,,0.00,weatherlink.com 1.10,2013-05-02 12:50:00,
2013-05-02 08:05:00,65.5,65.0,29.92,ENE,76,1.0,2.0,98,0.00,,,0.00,weatherlink.com 1.10,2013-05-02 13:05:00,
2013-05-02 08:20:00,66.1,65.0,29.92,ENE,69,3.0,4.0,97,0.00,,,0.00,weatherlink.com 1.10,2013-05-02 13:20:00,
2013-05-02 08:35:00,66.8,65.0,29.92,ESE,121,0.0,2.0,95,0.00,,,0.00,weatherlink.com 1.10,2013-05-02 13:35:00,
2013-05-02 08:50:00,67.4,66.0,29.93,East,84,0.0,2.0,94,0.00,,,0.00,weatherlink.com 1.10,2013-05-02 13:50:00,
2013-05-02 09:05:00,67.4,65.0,29.93,East,85,3.0,3.0,92,0.00,,,0.00,weatherlink.com 1.10,2013-05-02 14:05:00,
2013-05-02 09:20:00,67.3,65.0,29.93,NE,56,0.0,3.0,93,0.00,,,0.00,weatherlink.com 1.10,2013-05-02 14:20:00,
2013-05-02 09:35:00,67.6,66.0,29.93,NE,56,2.0,2.0,94,0.00,,,0.00,weatherlink.com 1.10,2013-05-02 14:35:00,
2013-05-02 09:50:00,67.9,66.0,29.93,North,355,3.0,4.0,92,0.00,,,0.00,weatherlink.com 1.10,2013-05-02 14:50:00,
2013-05-02 10:05:00,68.8,66.0,29.92,ESE,109,0.0,4.0,90,0.00,,,0.00,weatherlink.com 1.10,2013-05-02 15:05:00,
2013-05-02 10:20:00,69.9,66.0,29.93,ESE,106,3.0,4.0,87,0.00,,,0.00,weatherlink.com 1.10,2013-05-02 15:20:00,
2013-05-02 10:35:00,70.1,67.0,29.93,NE,53,1.0,5.0,88,0.00,,,0.00,weatherlink.com 1.10,2013-05-02 15:35:00,
2013-05-02 10:50:00,70.2,67.0,29.94,ENE,60,3.0,3.0,88,0.00,,,0.00,weatherlink.com 1.10,2013-05-02 15:50:00,
2013-05-02 11:05:00,70.8,67.0,29.94,ENE,60,0.0,4.0,87,0.00,,,0.00,weatherlink.com 1.10,2013-05-02 16:05:00,
2013-05-02 11:21:00,70.9,66.0,29.93,NNE,22,1.0,3.0,84,0.00,,,0.00,weatherlink.com 1.10,2013-05-02 16:21:00,
2013-05-02 11:36:00,72.0,67.0,29.93,NW,322,0.0,5.0,83,0.00,,,0.00,weatherlink.com 1.10,2013-05-02 16:36:00,
2013-05-02 11:51:00,72.5,66.0,29.93,ENE,76,1.0,5.0,81,0.00,,,0.00,weatherlink.com 1.10,2013-05-02 16:51:00,
2013-05-02 12:06:00,72.5,66.0,29.92,ENE,62,1.0,5.0,81,0.00,,,0.00,weatherlink.com 1.10,2013-05-02 17:06:00,
2013-05-02 12:21:00,72.4,67.0,29.93,NE,50,1.0,3.0,83,0.00,,,0.00,weatherlink.com 1.10,2013-05-02 17:21:00,
2013-05-02 12:36:00,72.5,67.0,29.92,North,350,3.0,4.0,83,0.00,,,0.00,weatherlink.com 1.10,2013-05-02 17:36:00,
2013-05-02 12:51:00,73.8,68.0,29.91,NE,42,4.0,7.0,82,0.00,,,0.00,weatherlink.com 1.10,2013-05-02 17:51:00,
2013-05-02 13:06:00,75.4,68.0,29.91,NNW,333,3.0,9.0,78,0.00,,,0.00,weatherlink.com 1.10,2013-05-02 18:06:00,
2013-05-02 13:21:00,74.2,68.0,29.91,East,92,5.0,8.0,80,0.00,,,0.00,weatherlink.com 1.10,2013-05-02 18:21:00,
2013-05-02 13:36:00,75.2,69.0,29.91,NE,42,5.0,7.0,80,0.00,,,0.00,weatherlink.com 1.10,2013-05-02 18:36:00,
2013-05-02 13:51:00,76.2,69.0,29.90,NE,40,6.0,8.0,78,0.00,,,0.00,weatherlink.com 1.10,2013-05-02 18:51:00,
2013-05-02 14:06:00,76.1,69.0,29.90,NE,38,4.0,7.0,79,0.00,,,0.00,weatherlink.com 1.10,2013-05-02 19:06:00,
2013-05-02 14:21:00,75.7,68.0,29.90,East,97,5.0,6.0,78,0.00,,,0.00,weatherlink.com 1.10,2013-05-02 19:21:00,
2013-05-02 14:36:00,75.7,70.0,29.91,ESE,107,8.0,11.0,82,0.00,,,0.00,weatherlink.com 1.10,2013-05-02 19:36:00,
2013-05-02 17:43:00,-999.0,-99.9,0.00,North,-999,-999.0,-999.0,-999,0.00,,,0.00,weatherlink.com 1.10,2013-05-02 22:43:00,
2013-05-02 18:00:00,72.0,69.0,29.89,ENE,64,1.0,6.0,89,0.00,,,0.00,weatherlink.com 1.10,2013-05-02 23:00:00,
2013-05-02 18:15:00,71.4,69.0,29.90,NE,55,0.0,4.0,91,0.00,,,0.00,weatherlink.com 1.10,2013-05-02 23:15:00,
2013-05-02 18:30:00,71.0,69.0,29.90,NE,55,1.0,2.0,93,0.00,,,0.00,weatherlink.com 1.10,2013-05-02 23:30:00,
2013-05-02 18:45:00,70.5,68.0,29.90,NNE,18,2.0,4.0,93,0.01,,,0.01,weatherlink.com 1.10,2013-05-02 23:45:00,
2013-05-02 19:00:00,70.0,69.0,29.90,North,5,1.0,4.0,95,0.02,,,0.02,weatherlink.com 1.10,2013-05-03 00:00:00,
2013-05-02 19:15:00,69.6,69.0,29.90,NNW,334,3.0,4.0,96,0.04,,,0.04,weatherlink.com 1.10,2013-05-03 00:15:00,
2013-05-02 19:30:00,68.8,68.0,29.91,North,350,2.0,8.0,96,0.05,,,0.05,weatherlink.com 1.10,2013-05-03 00:30:00,
2013-05-02 19:45:00,68.4,68.0,29.91,NNW,336,1.0,4.0,97,0.06,,,0.07,weatherlink.com 1.10,2013-05-03 00:45:00,
2013-05-02 20:00:00,68.3,68.0,29.92,North,355,0.0,2.0,98,0.09,,,0.11,weatherlink.com 1.10,2013-05-03 01:00:00,
2013-05-02 20:15:00,68.2,68.0,29.93,North,355,2.0,3.0,98,0.07,,,0.11,weatherlink.com 1.10,2013-05-03 01:15:00,
2013-05-02 20:30:00,68.0,68.0,29.93,NNW,327,2.0,3.0,98,0.07,,,0.12,weatherlink.com 1.10,2013-05-03 01:30:00,
2013-05-02 20:45:00,67.8,67.0,29.93,North,351,1.0,4.0,98,0.06,,,0.13,weatherlink.com 1.10,2013-05-03 01:45:00,
2013-05-02 21:00:00,67.7,67.0,29.93,North,349,0.0,2.0,98,0.02,,,0.13,weatherlink.com 1.10,2013-05-03 02:00:00,
2013-05-02 21:15:00,67.5,67.0,29.93,North,349,0.0,0.0,98,0.02,,,0.13,weatherlink.com 1.10,2013-05-03 02:15:00,
2013-05-02 21:30:00,67.5,67.0,29.94,North,349,0.0,0.0,99,0.01,,,0.13,weatherlink.com 1.10,2013-05-03 02:30:00,
2013-05-02 21:45:00,67.4,67.0,29.94,North,349,0.0,1.0,99,0.02,,,0.15,weatherlink.com 1.10,2013-05-03 02:45:00,
2013-05-02 22:00:00,67.5,67.0,29.95,North,349,0.0,3.0,99,0.03,,,0.16,weatherlink.com 1.10,2013-05-03 03:00:00,
2013-05-02 22:15:00,67.4,67.0,29.95,North,349,0.0,3.0,99,0.03,,,0.16,weatherlink.com 1.10,2013-05-03 03:15:00,
2013-05-02 22:30:00,67.4,67.0,29.94,North,355,0.0,2.0,99,0.04,,,0.17,weatherlink.com 1.10,2013-05-03 03:30:00,
2013-05-02 22:45:00,67.2,67.0,29.94,North,355,1.0,2.0,99,0.02,,,0.17,weatherlink.com 1.10,2013-05-03 03:45:00,
2013-05-02 23:00:00,67.0,67.0,29.93,North,355,0.0,2.0,99,0.01,,,0.17,weatherlink.com 1.10,2013-05-03 04:00:00,
2013-05-02 23:15:00,66.9,67.0,29.94,North,355,0.0,2.0,99,0.01,,,0.17,weatherlink.com 1.10,2013-05-03 04:15:00,
2013-05-02 23:30:00,66.8,67.0,29.93,North,355,0.0,0.0,99,0.00,,,0.17,weatherlink.com 1.10,2013-05-03 04:30:00,
2013-05-02 23:45:00,66.8,67.0,29.93,North,355,0.0,0.0,99,0.00,,,0.17,weatherlink.com 1.10,2013-05-03 04:45:00,